ONEWEB-0186 (48229 NORAD) Tracking and Keplerian Element Data

This shows tracking and keplerian element data for the satellite.

Feedback or suggestion? Click here.




ElementValue
Catalog48229
NameONEWEB-0186
Epoch Orbit180
Epoch Day136.75001157
Epoch Year2021
RAAN305.7578
Inclination87.4089
Eccentricity0.0008268
Argument of Perigee164.9037
Mean Anonmoly53.1093
Mean Motion15.37629139
Decay Rate-0.01417383
L11 48229U 21031V 21136.75001157 -.01417383 00000-0 -42261-1 0 9996
L22 48229 87.4089 305.7578 0008268 164.9037 53.1093 15.37629139 1808

Live tracking and technical data element details for ONEWEB-0186 (NORAD 48229). ONEWEB-0186 can be tracked NOW for your location showing map with azimuth and elevation plus other details from your city location.

Track the satellite on the map from your city or location and see movement details for azimuth, elevation, latitude, longitude, range, height, and movement on the map or in text.







IsCatalogInMostPopularTable: catalog: 48229, numindb: 5
Update: records affected: 1



GetName: 48229 ONEWEB-0186

Hit Count: updated at: Mon, 17 May 2021 16:00:47 GMT